Location: Meinert
(37.9441°N, 122.0275°W)
Time: 18:03:20
(UTC+00:00)

Cosmos 2315 Rocket - Pass Details

Date: 18 April 2024
Orbit: 965 x 1002 km, 82.9° (Epoch: 23 May)

Event Time Altitude Azimuth Distance (km) Brightness Sun altitude
Rises 12:32:48 0° 351° (N) 3,663 7.2 -11.1°
Reaches altitude 10° 12:35:18 10° 350° (N) 2,711 6.5 -10.6°
Maximum altitude 12:41:29 76° 266° (W) 995 3.9 -9.5°
Drops below altitude 10° 12:47:39 10° 181° (S) 2,700 6.1 -8.3°
Sets 12:50:09 0° 180° (S) 3,646 6.8 -7.9°
